Buckeye, AZ

7:34 PM MST on October 20, 2017 (GMT -0700)
Buckeye Municipal

Weather History for KBXK - October, 2012

Change the Weather History Date:

Thursday, October 4, 2012

  Actual Average (KGYR) Record (KGYR)
Temperature  
Mean Temperature 80 °F -  
Max Temperature 93 °F 92 °F 98 °F (1996)
Min Temperature 66 °F 64 °F 48 °F (1996)
Cooling Degree Days 14    
Growing Degree Days 30 (Base 50)    
Moisture  
Dew Point 41 °F    
Average Humidity 27    
Maximum Humidity 43    
Minimum Humidity 14    
Precipitation  
Precipitation 0.00 in - - ()
Sea Level Pressure  
Sea Level Pressure 29.97 in    
Wind  
Wind Speed 4 mph (SSW)    
Max Wind Speed 10 mph    
Max Gust Speed -    
Visibility 10 miles    
Events      
Averages and records for this station are not official NWS values.
T = Trace of Precipitation, MM = Missing Value Source: NWS Daily Summary

Daily Weather History Graph

Daily Weather History Graph

Search for Another Location

Airport or City:

Trip Planner

Search our weather history database for the weather conditions in past years. The results will help you decide how hot, cold, wet, or windy it might be!

Date:

Astronomy

Oct. 04, 2012 Rise Set
Actual Time 6:27 AM MST 6:10 PM MST
Civil Twilight 6:02 AM MST 6:35 PM MST
Nautical Twilight 5:34 AM MST 7:03 PM MST
Astronomical Twilight 5:05 AM MST 7:32 PM MST
Moon 9:02 PM MST (10/4) 10:34 AM MST (10/4)
Length of Visible Light 12h 32m
Length of Day
11h 42m
Waning Gibbous, 81% of the Moon is Illuminated
Oct 4
Waning Gibbous
Oct 8
Last Quarter
Oct 15
New
Oct 21
First Quarter
Oct 29
Full

Hourly Weather History & Observations

Time (MST) Temp. Heat Index Dew Point Humidity Pressure Visibility Wind Dir Wind Speed Gust Speed Precip Events Conditions
12:15 AM 80.6 °F - 37.4 °F 21% 29.94 in 10.0 mi WNW 3.5 mph - N/A   Clear
12:35 AM 78.8 °F - 37.4 °F 23% 29.95 in 10.0 mi WNW 3.5 mph - N/A   Clear
12:55 AM 78.8 °F - 39.2 °F 24% 29.95 in 10.0 mi West 3.5 mph - N/A   Clear
1:15 AM 77.0 °F - 46.4 °F 34% 29.95 in 10.0 mi SW 5.8 mph - N/A   Clear
1:35 AM 75.2 °F - 46.4 °F 36% 29.95 in 10.0 mi Calm Calm - N/A   Clear
1:55 AM 75.2 °F - 46.4 °F 36% 29.96 in 10.0 mi Calm Calm - N/A   Clear
2:15 AM 73.4 °F - 44.6 °F 36% 29.96 in 10.0 mi Calm Calm - N/A   Clear
2:35 AM 71.6 °F - 44.6 °F 38% 29.96 in 10.0 mi Calm Calm - N/A   Partly Cloudy
2:55 AM 73.4 °F - 46.4 °F 38% 29.96 in 10.0 mi Calm Calm - N/A   Scattered Clouds
3:15 AM 69.8 °F - 46.4 °F 43% 29.96 in 10.0 mi Calm Calm - N/A   Clear
3:35 AM 69.8 °F - 46.4 °F 43% 29.96 in 10.0 mi Calm Calm - N/A   Clear
3:55 AM 71.6 °F - 48.2 °F 43% 29.96 in 10.0 mi Calm Calm - N/A   Clear
4:15 AM 69.8 °F - 46.4 °F 43% 29.97 in 10.0 mi NNE 4.6 mph - N/A   Clear
4:35 AM 69.8 °F - 46.4 °F 43% 29.97 in 10.0 mi NE 8.1 mph - N/A   Clear
4:55 AM 69.8 °F - 46.4 °F 43% 29.97 in 10.0 mi NE 3.5 mph - N/A   Clear
5:15 AM 68.0 °F - 44.6 °F 43% 29.97 in 10.0 mi NNE 6.9 mph - N/A   Clear
5:35 AM 69.8 °F - 44.6 °F 40% 29.98 in 10.0 mi North 4.6 mph - N/A   Clear
5:55 AM 68.0 °F - 44.6 °F 43% 29.98 in 10.0 mi NNE 5.8 mph - N/A   Clear
6:15 AM 68.0 °F - 42.8 °F 40% 29.99 in 10.0 mi NE 4.6 mph - N/A   Clear
6:35 AM 66.2 °F - 41.0 °F 40% 29.99 in 10.0 mi NNE 6.9 mph - N/A   Clear
6:55 AM 66.2 °F - 41.0 °F 40% 30.00 in 10.0 mi NNE 4.6 mph - N/A   Clear
7:15 AM 68.0 °F - 41.0 °F 37% 30.01 in 10.0 mi Calm Calm - N/A   Clear
7:35 AM 71.6 °F - 42.8 °F 35% 30.01 in 10.0 mi Calm Calm - N/A   Clear
7:55 AM 73.4 °F - 44.6 °F 36% 30.02 in 10.0 mi Calm Calm - N/A   Clear
8:15 AM 77.0 °F - 46.4 °F 34% 30.03 in 10.0 mi Calm Calm - N/A   Clear
8:55 AM 82.4 °F 81.4 °F 53.6 °F 37% 30.04 in 10.0 mi SE 4.6 mph - N/A   Clear
9:15 AM 82.4 °F - 50.0 °F 32% 30.05 in 10.0 mi SE 5.8 mph - N/A   Clear
9:35 AM 84.2 °F - 46.4 °F 27% 30.05 in 10.0 mi ESE 6.9 mph - N/A   Clear
9:55 AM 84.2 °F - 44.6 °F 25% 30.05 in 10.0 mi ESE 6.9 mph - N/A   Clear
10:15 AM 84.2 °F - 46.4 °F 27% 30.05 in 10.0 mi SE 4.6 mph - N/A   Clear
10:35 AM 86.0 °F - 46.4 °F 25% 30.05 in 10.0 mi South 3.5 mph - N/A   Clear
10:55 AM 86.0 °F - 41.0 °F 20% 30.05 in 10.0 mi Calm Calm - N/A   Clear
11:15 AM 87.8 °F - 44.6 °F 22% 30.05 in 10.0 mi SSE 4.6 mph - N/A   Clear
11:35 AM 87.8 °F - 41.0 °F 19% 30.04 in 10.0 mi SSE 3.5 mph - N/A   Clear
11:55 AM 89.6 °F - 44.6 °F 21% 30.03 in 10.0 mi South 3.5 mph - N/A   Clear
12:15 PM 89.6 °F - 41.0 °F 18% 30.02 in 10.0 mi ESE 3.5 mph - N/A   Clear
12:35 PM 89.6 °F - 41.0 °F 18% 30.02 in 10.0 mi South 4.6 mph - N/A   Clear
12:55 PM 91.4 °F - 41.0 °F 17% 30.00 in 10.0 mi South 8.1 mph - N/A   Clear
1:15 PM 91.4 °F - 42.8 °F 18% 29.99 in 10.0 mi South 9.2 mph - N/A   Clear
1:35 PM 91.4 °F - 41.0 °F 17% 29.98 in 10.0 mi South 5.8 mph - N/A   Clear
2:15 PM 93.2 °F - 41.0 °F 16% 29.97 in 10.0 mi SE 3.5 mph - N/A   Clear
2:35 PM 93.2 °F - 39.2 °F 15% 29.96 in 10.0 mi South 5.8 mph - N/A   Clear
2:55 PM 93.2 °F - 39.2 °F 15% 29.96 in 10.0 mi SSE 4.6 mph - N/A   Clear
3:15 PM 93.2 °F - 39.2 °F 15% 29.95 in 10.0 mi SSW 10.4 mph - N/A   Clear
3:35 PM 93.2 °F - 39.2 °F 15% 29.95 in 10.0 mi South 8.1 mph - N/A   Clear
3:55 PM 93.2 °F - 39.2 °F 15% 29.94 in 10.0 mi South 8.1 mph - N/A   Clear
4:15 PM 93.2 °F - 39.2 °F 15% 29.94 in 10.0 mi SW 6.9 mph - N/A   Clear
4:35 PM 93.2 °F - 41.0 °F 16% 29.93 in 10.0 mi SSW 8.1 mph - N/A   Clear
4:55 PM 93.2 °F - 37.4 °F 14% 29.93 in 10.0 mi SW 8.1 mph - N/A   Clear
5:15 PM 91.4 °F - 37.4 °F 15% 29.93 in 10.0 mi SW 8.1 mph - N/A   Clear
5:35 PM 91.4 °F - 37.4 °F 15% 29.93 in 10.0 mi WSW 5.8 mph - N/A   Clear
5:55 PM 89.6 °F - 37.4 °F 16% 29.93 in 10.0 mi WSW 6.9 mph - N/A   Clear
6:15 PM 86.0 °F - 37.4 °F 18% 29.93 in 10.0 mi WSW 5.8 mph - N/A   Clear
6:35 PM 84.2 °F - 37.4 °F 19% 29.93 in 10.0 mi WSW 6.9 mph - N/A   Clear
7:15 PM 82.4 °F - 35.6 °F 19% 29.93 in 10.0 mi WNW 6.9 mph - N/A   Clear
7:35 PM 82.4 °F - 35.6 °F 19% 29.94 in 10.0 mi WNW 5.8 mph - N/A   Clear
7:55 PM 80.6 °F - 35.6 °F 20% 29.94 in 10.0 mi WNW 5.8 mph - N/A   Clear
8:15 PM 82.4 °F - 35.6 °F 19% 29.94 in 10.0 mi WNW 6.9 mph - N/A   Clear
8:35 PM 80.6 °F - 33.8 °F 18% 29.94 in 10.0 mi WNW 6.9 mph - N/A   Clear
8:55 PM 80.6 °F - 32.0 °F 17% 29.94 in 10.0 mi NW 9.2 mph - N/A   Clear
9:15 PM 80.6 °F - 32.0 °F 17% 29.94 in 10.0 mi NW 8.1 mph - N/A   Clear
9:35 PM 77.0 °F - 33.8 °F 21% 29.95 in 10.0 mi NNW 6.9 mph - N/A   Clear
9:55 PM 75.2 °F - 32.0 °F 21% 29.95 in 10.0 mi North 6.9 mph - N/A   Clear
10:15 PM 71.6 °F - 39.2 °F 31% 29.96 in 10.0 mi South 3.5 mph - N/A   Clear
10:35 PM 71.6 °F - 42.8 °F 35% 29.96 in 10.0 mi Calm Calm - N/A   Clear
10:55 PM 71.6 °F - 37.4 °F 29% 29.96 in 10.0 mi Calm Calm - N/A   Clear
11:15 PM 71.6 °F - 35.6 °F 27% 29.96 in 10.0 mi Calm Calm - N/A   Clear
11:35 PM 71.6 °F - 37.4 °F 29% 29.96 in 10.0 mi East 3.5 mph - N/A   Clear
11:55 PM 73.4 °F - 35.6 °F 25% 29.96 in 10.0 mi East 3.5 mph - N/A   Clear